owner,sensor,date,latitude,longitude,vertical_datum,sea_water_temperature,qcFlag 
SCCF RECON,ioos:station:SCCF:53:1,2009-01-09T20:00:00Z,26.6493,-81.8810,2.11,22.35,2 
SCCF RECON,ioos:station:SCCF:53:1,2009-01-09T21:00:00Z,26.6493,-81.8810,2.11,22.34,2 
SCCF RECON,ioos:station:SCCF:53:1,2009-01-09T22:00:00Z,26.6493,-81.8810,2.11,22.26,2 
SCCF RECON,ioos:station:SCCF:53:1,2009-01-09T23:00:00Z,26.6493,-81.8810,2.11,22.26,2 
SCCF RECON,ioos:station:SCCF:53:1,2009-01-10T00:00:00Z,26.6493,-81.8810,2.11,22.25,2 
SCCF RECON,ioos:station:SCCF:53:1,2009-01-10T01:00:00Z,26.6493,-81.8810,2.11,22.2,2 
SCCF RECON,ioos:station:SCCF:53:1,2009-01-10T02:00:00Z,26.6493,-81.8810,2.11,22.18,2 
SCCF RECON,ioos:station:SCCF:53:1,2009-01-10T03:00:00Z,26.6493,-81.8810,2.11,22.09,2 
SCCF RECON,ioos:station:SCCF:53:1,2009-01-10T04:00:00Z,26.6493,-81.8810,2.11,22.03,2 
SCCF RECON,ioos:station:SCCF:53:1,2009-01-10T05:00:00Z,26.6493,-81.8810,2.11,22.01,2 
SCCF RECON,ioos:station:SCCF:53:1,2009-01-10T06:00:00Z,26.6493,-81.8810,2.11,21.73,2 
SCCF RECON,ioos:station:SCCF:53:1,2009-01-10T07:00:00Z,26.6493,-81.8810,2.11,21.53,2 
SCCF RECON,ioos:station:SCCF:53:1,2009-01-10T08:00:00Z,26.6493,-81.8810,2.11,21.74,2 
SCCF RECON,ioos:station:SCCF:53:1,2009-01-10T09:00:00Z,26.6493,-81.8810,2.11,21.32,2 
SCCF RECON,ioos:station:SCCF:53:1,2009-01-10T10:00:00Z,26.6493,-81.8810,2.11,21.61,2 
SCCF RECON,ioos:station:SCCF:53:1,2009-01-10T11:00:00Z,26.6493,-81.8810,2.11,21.58,2 
SCCF RECON,ioos:station:SCCF:53:1,2009-01-10T12:00:00Z,26.6493,-81.8810,2.11,21.49,2 
SCCF RECON,ioos:station:SCCF:53:1,2009-01-10T13:00:00Z,26.6493,-81.8810,2.11,21.28,2 
SCCF RECON,ioos:station:SCCF:53:1,2009-01-10T14:00:00Z,26.6493,-81.8810,2.11,21.19,2 
SCCF RECON,ioos:station:SCCF:53:1,2009-01-10T15:00:00Z,26.6493,-81.8810,2.11,21.21,2 
SCCF RECON,ioos:station:SCCF:53:1,2009-01-10T16:00:00Z,26.6493,-81.8810,2.11,21.28,2 
SCCF RECON,ioos:station:SCCF:53:1,2009-01-10T17:00:00Z,26.6493,-81.8810,2.11,21.19,2 
SCCF RECON,ioos:station:SCCF:53:1,2009-01-10T18:00:00Z,26.6493,-81.8810,2.11,21.08,2 
SCCF RECON,ioos:station:SCCF:53:1,2009-01-10T19:00:00Z,26.6493,-81.8810,2.11,21.17,2 
SCCF RECON,ioos:station:SCCF:53:1,2009-01-10T20:00:00Z,26.6493,-81.8810,2.11,21.12,2 
SCCF RECON,ioos:station:SCCF:53:1,2009-01-10T21:00:00Z,26.6493,-81.8810,2.11,21.51,2 
SCCF RECON,ioos:station:SCCF:53:1,2009-01-10T22:00:00Z,26.6493,-81.8810,2.11,21.65,2 
SCCF RECON,ioos:station:SCCF:53:1,2009-01-10T23:00:00Z,26.6493,-81.8810,2.11,21.54,2 
SCCF RECON,ioos:station:SCCF:53:1,2009-01-11T00:00:00Z,26.6493,-81.8810,2.11,21.95,2 
SCCF RECON,ioos:station:SCCF:53:1,2009-01-11T01:00:00Z,26.6493,-81.8810,2.11,21.78,2 
SCCF RECON,ioos:station:SCCF:53:1,2009-01-11T02:00:00Z,26.6493,-81.8810,2.11,21.82,2 
SCCF RECON,ioos:station:SCCF:53:1,2009-01-11T03:00:00Z,26.6493,-81.8810,2.11,21.59,2 
SCCF RECON,ioos:station:SCCF:53:1,2009-01-11T04:00:00Z,26.6493,-81.8810,2.11,21.92,2 
SCCF RECON,ioos:station:SCCF:53:1,2009-01-11T05:00:00Z,26.6493,-81.8810,2.11,21.58,2 
SCCF RECON,ioos:station:SCCF:53:1,2009-01-11T06:00:00Z,26.6493,-81.8810,2.11,21.58,2 
SCCF RECON,ioos:station:SCCF:53:1,2009-01-11T07:00:00Z,26.6493,-81.8810,2.11,21.58,2 
SCCF RECON,ioos:station:SCCF:53:1,2009-01-11T08:00:00Z,26.6493,-81.8810,2.11,21.55,2 
SCCF RECON,ioos:station:SCCF:53:1,2009-01-11T09:00:00Z,26.6493,-81.8810,2.11,21.53,2 
SCCF RECON,ioos:station:SCCF:53:1,2009-01-11T10:00:00Z,26.6493,-81.8810,2.11,21.5,2 
SCCF RECON,ioos:station:SCCF:53:1,2009-01-11T11:00:00Z,26.6493,-81.8810,2.11,21.56,2 
SCCF RECON,ioos:station:SCCF:53:1,2009-01-11T12:00:00Z,26.6493,-81.8810,2.11,21.53,2 
SCCF RECON,ioos:station:SCCF:53:1,2009-01-11T13:00:00Z,26.6493,-81.8810,2.11,21.55,2 
SCCF RECON,ioos:station:SCCF:53:1,2009-01-11T14:00:00Z,26.6493,-81.8810,2.11,21.55,2 
SCCF RECON,ioos:station:SCCF:53:1,2009-01-11T15:00:00Z,26.6493,-81.8810,2.11,21.5,2 
SCCF RECON,ioos:station:SCCF:53:1,2009-01-11T16:00:00Z,26.6493,-81.8810,2.11,21.51,2 
SCCF RECON,ioos:station:SCCF:53:1,2009-01-11T17:00:00Z,26.6493,-81.8810,2.11,21.55,2 
SCCF RECON,ioos:station:SCCF:53:1,2009-01-11T18:00:00Z,26.6493,-81.8810,2.11,21.57,2 
SCCF RECON,ioos:station:SCCF:53:1,2009-01-11T19:00:00Z,26.6493,-81.8810,2.11,21.65,2 
SCCF RECON,ioos:station:SCCF:53:1,2009-01-11T20:00:00Z,26.6493,-81.8810,2.11,21.68,2 
SCCF RECON,ioos:station:SCCF:53:1,2009-01-11T21:00:00Z,26.6493,-81.8810,2.11,21.89,2 
SCCF RECON,ioos:station:SCCF:53:1,2009-01-11T22:00:00Z,26.6493,-81.8810,2.11,22.49,2 
SCCF RECON,ioos:station:SCCF:53:1,2009-01-11T23:00:00Z,26.6493,-81.8810,2.11,22.87,2 
SCCF RECON,ioos:station:SCCF:53:1,2009-01-12T00:00:00Z,26.6493,-81.8810,2.11,22.58,2 
SCCF RECON,ioos:station:SCCF:53:1,2009-01-12T01:00:00Z,26.6493,-81.8810,2.11,22.58,2 
SCCF RECON,ioos:station:SCCF:53:1,2009-01-12T02:00:00Z,26.6493,-81.8810,2.11,22.37,2 
SCCF RECON,ioos:station:SCCF:53:1,2009-01-12T03:00:00Z,26.6493,-81.8810,2.11,22.33,2 
SCCF RECON,ioos:station:SCCF:53:1,2009-01-12T04:00:00Z,26.6493,-81.8810,2.11,22.63,2 
SCCF RECON,ioos:station:SCCF:53:1,2009-01-12T05:00:00Z,26.6493,-81.8810,2.11,22.48,2 
SCCF RECON,ioos:station:SCCF:53:1,2009-01-12T06:00:00Z,26.6493,-81.8810,2.11,22.21,2 
SCCF RECON,ioos:station:SCCF:53:1,2009-01-12T07:00:00Z,26.6493,-81.8810,2.11,22.02,2 
SCCF RECON,ioos:station:SCCF:53:1,2009-01-12T08:00:00Z,26.6493,-81.8810,2.11,21.97,2 
SCCF RECON,ioos:station:SCCF:53:1,2009-01-12T09:00:00Z,26.6493,-81.8810,2.11,21.9,2 
SCCF RECON,ioos:station:SCCF:53:1,2009-01-12T10:00:00Z,26.6493,-81.8810,2.11,21.91,2 
SCCF RECON,ioos:station:SCCF:53:1,2009-01-12T11:00:00Z,26.6493,-81.8810,2.11,21.88,2 
SCCF RECON,ioos:station:SCCF:53:1,2009-01-12T12:00:00Z,26.6493,-81.8810,2.11,22.07,2 
SCCF RECON,ioos:station:SCCF:53:1,2009-01-12T13:00:00Z,26.6493,-81.8810,2.11,21.93,2 
SCCF RECON,ioos:station:SCCF:53:1,2009-01-12T14:00:00Z,26.6493,-81.8810,2.11,21.91,2 
SCCF RECON,ioos:station:SCCF:53:1,2009-01-12T15:00:00Z,26.6493,-81.8810,2.11,21.92,2 
SCCF RECON,ioos:station:SCCF:53:1,2009-01-12T16:00:00Z,26.6493,-81.8810,2.11,21.93,2 
SCCF RECON,ioos:station:SCCF:53:1,2009-01-12T17:00:00Z,26.6493,-81.8810,2.11,21.88,2 
SCCF RECON,ioos:station:SCCF:53:1,2009-01-12T18:00:00Z,26.6493,-81.8810,2.11,21.95,2 
SCCF RECON,ioos:station:SCCF:53:1,2009-01-12T19:00:00Z,26.6493,-81.8810,2.11,21.91,2 
SCCF RECON,ioos:station:SCCF:53:1,2009-01-12T20:00:00Z,26.6493,-81.8810,2.11,21.9,2 
SCCF RECON,ioos:station:SCCF:53:1,2009-01-12T21:00:00Z,26.6493,-81.8810,2.11,22.09,2 
SCCF RECON,ioos:station:SCCF:53:1,2009-01-12T22:00:00Z,26.6493,-81.8810,2.11,22.0,2 
SCCF RECON,ioos:station:SCCF:53:1,2009-01-12T23:00:00Z,26.6493,-81.8810,2.11,21.96,2 
SCCF RECON,ioos:station:SCCF:53:1,2009-01-13T00:00:00Z,26.6493,-81.8810,2.11,22.09,2 
SCCF RECON,ioos:station:SCCF:53:1,2009-01-13T01:00:00Z,26.6493,-81.8810,2.11,22.23,2 
SCCF RECON,ioos:station:SCCF:53:1,2009-01-13T02:00:00Z,26.6493,-81.8810,2.11,21.98,2 
SCCF RECON,ioos:station:SCCF:53:1,2009-01-13T03:00:00Z,26.6493,-81.8810,2.11,21.87,2 
SCCF RECON,ioos:station:SCCF:53:1,2009-01-13T04:00:00Z,26.6493,-81.8810,2.11,21.9,2 
SCCF RECON,ioos:station:SCCF:53:1,2009-01-13T05:00:00Z,26.6493,-81.8810,2.11,21.9,2 
SCCF RECON,ioos:station:SCCF:53:1,2009-01-13T06:00:00Z,26.6493,-81.8810,2.11,22.03,2 
SCCF RECON,ioos:station:SCCF:53:1,2009-01-13T07:00:00Z,26.6493,-81.8810,2.11,22.1,2 
SCCF RECON,ioos:station:SCCF:53:1,2009-01-13T08:00:00Z,26.6493,-81.8810,2.11,21.9,2 
SCCF RECON,ioos:station:SCCF:53:1,2009-01-13T09:00:00Z,26.6493,-81.8810,2.11,21.81,2 
SCCF RECON,ioos:station:SCCF:53:1,2009-01-13T10:00:00Z,26.6493,-81.8810,2.11,21.86,2 
SCCF RECON,ioos:station:SCCF:53:1,2009-01-13T11:00:00Z,26.6493,-81.8810,2.11,21.97,2 
SCCF RECON,ioos:station:SCCF:53:1,2009-01-13T12:00:00Z,26.6493,-81.8810,2.11,22.14,2 
SCCF RECON,ioos:station:SCCF:53:1,2009-01-13T13:00:00Z,26.6493,-81.8810,2.11,22.07,2 
SCCF RECON,ioos:station:SCCF:53:1,2009-01-13T14:00:00Z,26.6493,-81.8810,2.11,22.03,2 
SCCF RECON,ioos:station:SCCF:53:1,2009-01-13T15:00:00Z,26.6493,-81.8810,2.11,22.07,2 
SCCF RECON,ioos:station:SCCF:53:1,2009-01-13T16:00:00Z,26.6493,-81.8810,2.11,22.07,2 
SCCF RECON,ioos:station:SCCF:53:1,2009-01-13T17:00:00Z,26.6493,-81.8810,2.11,22.07,2 
SCCF RECON,ioos:station:SCCF:53:1,2009-01-13T18:00:00Z,26.6493,-81.8810,2.11,22.05,2 
SCCF RECON,ioos:station:SCCF:53:1,2009-01-13T19:00:00Z,26.6493,-81.8810,2.11,22.25,2 
SCCF RECON,ioos:station:SCCF:53:1,2009-01-13T20:00:00Z,26.6493,-81.8810,2.11,22.37,2 
SCCF RECON,ioos:station:SCCF:53:1,2009-01-13T21:00:00Z,26.6493,-81.8810,2.11,22.37,2 
SCCF RECON,ioos:station:SCCF:53:1,2009-01-13T22:00:00Z,26.6493,-81.8810,2.11,22.35,2 
SCCF RECON,ioos:station:SCCF:53:1,2009-01-13T23:00:00Z,26.6493,-81.8810,2.11,22.27,2 
SCCF RECON,ioos:station:SCCF:53:1,2009-01-14T00:00:00Z,26.6493,-81.8810,2.11,22.35,2 
SCCF RECON,ioos:station:SCCF:53:1,2009-01-14T01:00:00Z,26.6493,-81.8810,2.11,22.0,2 
SCCF RECON,ioos:station:SCCF:53:1,2009-01-14T02:00:00Z,26.6493,-81.8810,2.11,21.86,2 
SCCF RECON,ioos:station:SCCF:53:1,2009-01-14T03:00:00Z,26.6493,-81.8810,2.11,21.77,2 
SCCF RECON,ioos:station:SCCF:53:1,2009-01-14T04:00:00Z,26.6493,-81.8810,2.11,21.72,2 
SCCF RECON,ioos:station:SCCF:53:1,2009-01-14T05:00:00Z,26.6493,-81.8810,2.11,21.55,2 
SCCF RECON,ioos:station:SCCF:53:1,2009-01-14T06:00:00Z,26.6493,-81.8810,2.11,21.53,2 
SCCF RECON,ioos:station:SCCF:53:1,2009-01-14T07:00:00Z,26.6493,-81.8810,2.11,21.4,2 
SCCF RECON,ioos:station:SCCF:53:1,2009-01-14T08:00:00Z,26.6493,-81.8810,2.11,21.16,2 
SCCF RECON,ioos:station:SCCF:53:1,2009-01-14T09:00:00Z,26.6493,-81.8810,2.11,21.25,2 
SCCF RECON,ioos:station:SCCF:53:1,2009-01-14T10:00:00Z,26.6493,-81.8810,2.11,21.2,2 
SCCF RECON,ioos:station:SCCF:53:1,2009-01-14T11:00:00Z,26.6493,-81.8810,2.11,21.28,2 
SCCF RECON,ioos:station:SCCF:53:1,2009-01-14T12:00:00Z,26.6493,-81.8810,2.11,21.21,2 
SCCF RECON,ioos:station:SCCF:53:1,2009-01-14T13:00:00Z,26.6493,-81.8810,2.11,20.94,2 
SCCF RECON,ioos:station:SCCF:53:1,2009-01-14T14:00:00Z,26.6493,-81.8810,2.11,21.32,2 
SCCF RECON,ioos:station:SCCF:53:1,2009-01-14T15:00:00Z,26.6493,-81.8810,2.11,21.41,2 
SCCF RECON,ioos:station:SCCF:53:1,2009-01-14T16:00:00Z,26.6493,-81.8810,2.11,21.37,2 
SCCF RECON,ioos:station:SCCF:53:1,2009-01-14T17:00:00Z,26.6493,-81.8810,2.11,21.07,2 
SCCF RECON,ioos:station:SCCF:53:1,2009-01-14T18:00:00Z,26.6493,-81.8810,2.11,21.01,2 
SCCF RECON,ioos:station:SCCF:53:1,2009-01-14T19:00:00Z,26.6493,-81.8810,2.11,21.02,2 
SCCF RECON,ioos:station:SCCF:53:1,2009-01-14T20:00:00Z,26.6493,-81.8810,2.11,20.89,2 
SCCF RECON,ioos:station:SCCF:53:1,2009-01-14T21:00:00Z,26.6493,-81.8810,2.11,20.76,2 
SCCF RECON,ioos:station:SCCF:53:1,2009-01-14T22:00:00Z,26.6493,-81.8810,2.11,20.75,2 
SCCF RECON,ioos:station:SCCF:53:1,2009-01-14T23:00:00Z,26.6493,-81.8810,2.11,20.62,2 
SCCF RECON,ioos:station:SCCF:53:1,2009-01-15T00:00:00Z,26.6493,-81.8810,2.11,20.46,2 
SCCF RECON,ioos:station:SCCF:53:1,2009-01-15T01:00:00Z,26.6493,-81.8810,2.11,20.45,2 
SCCF RECON,ioos:station:SCCF:53:1,2009-01-15T02:00:00Z,26.6493,-81.8810,2.11,20.36,2 
SCCF RECON,ioos:station:SCCF:53:1,2009-01-15T03:00:00Z,26.6493,-81.8810,2.11,20.79,2 
SCCF RECON,ioos:station:SCCF:53:1,2009-01-15T04:00:00Z,26.6493,-81.8810,2.11,20.21,2 
SCCF RECON,ioos:station:SCCF:53:1,2009-01-15T05:00:00Z,26.6493,-81.8810,2.11,19.8,2 
SCCF RECON,ioos:station:SCCF:53:1,2009-01-15T06:00:00Z,26.6493,-81.8810,2.11,19.51,2 
SCCF RECON,ioos:station:SCCF:53:1,2009-01-15T07:00:00Z,26.6493,-81.8810,2.11,19.63,2 
SCCF RECON,ioos:station:SCCF:53:1,2009-01-15T08:00:00Z,26.6493,-81.8810,2.11,19.41,2 
SCCF RECON,ioos:station:SCCF:53:1,2009-01-15T09:00:00Z,26.6493,-81.8810,2.11,19.4,2 
SCCF RECON,ioos:station:SCCF:53:1,2009-01-15T10:00:00Z,26.6493,-81.8810,2.11,19.25,2 
SCCF RECON,ioos:station:SCCF:53:1,2009-01-15T11:00:00Z,26.6493,-81.8810,2.11,19.1,2 
SCCF RECON,ioos:station:SCCF:53:1,2009-01-15T12:00:00Z,26.6493,-81.8810,2.11,18.98,2 
SCCF RECON,ioos:station:SCCF:53:1,2009-01-15T13:00:00Z,26.6493,-81.8810,2.11,18.55,2 
SCCF RECON,ioos:station:SCCF:53:1,2009-01-15T14:00:00Z,26.6493,-81.8810,2.11,18.64,2 
SCCF RECON,ioos:station:SCCF:53:1,2009-01-15T15:00:00Z,26.6493,-81.8810,2.11,18.59,2 
SCCF RECON,ioos:station:SCCF:53:1,2009-01-15T16:00:00Z,26.6493,-81.8810,2.11,18.5,2 
SCCF RECON,ioos:station:SCCF:53:1,2009-01-15T17:00:00Z,26.6493,-81.8810,2.11,18.28,2 
SCCF RECON,ioos:station:SCCF:53:1,2009-01-15T18:00:00Z,26.6493,-81.8810,2.11,18.24,2 
SCCF RECON,ioos:station:SCCF:53:1,2009-01-15T19:00:00Z,26.6493,-81.8810,2.11,18.19,2 
SCCF RECON,ioos:station:SCCF:53:1,2009-01-15T20:00:00Z,26.6493,-81.8810,2.11,18.2,2 
SCCF RECON,ioos:station:SCCF:53:1,2009-01-15T21:00:00Z,26.6493,-81.8810,2.11,18.08,2 
SCCF RECON,ioos:station:SCCF:53:1,2009-01-15T22:00:00Z,26.6493,-81.8810,2.11,17.87,2 
SCCF RECON,ioos:station:SCCF:53:1,2009-01-15T23:00:00Z,26.6493,-81.8810,2.11,17.98,2 
SCCF RECON,ioos:station:SCCF:53:1,2009-01-16T00:00:00Z,26.6493,-81.8810,2.11,17.99,2 
SCCF RECON,ioos:station:SCCF:53:1,2009-01-16T01:00:00Z,26.6493,-81.8810,2.11,17.89,2 
SCCF RECON,ioos:station:SCCF:53:1,2009-01-16T02:00:00Z,26.6493,-81.8810,2.11,17.77,2 
SCCF RECON,ioos:station:SCCF:53:1,2009-01-16T03:00:00Z,26.6493,-81.8810,2.11,17.66,2 
SCCF RECON,ioos:station:SCCF:53:1,2009-01-16T04:00:00Z,26.6493,-81.8810,2.11,17.44,2 
SCCF RECON,ioos:station:SCCF:53:1,2009-01-16T05:00:00Z,26.6493,-81.8810,2.11,17.23,2 
SCCF RECON,ioos:station:SCCF:53:1,2009-01-16T06:00:00Z,26.6493,-81.8810,2.11,16.91,2 
SCCF RECON,ioos:station:SCCF:53:1,2009-01-16T07:00:00Z,26.6493,-81.8810,2.11,16.84,2 
SCCF RECON,ioos:station:SCCF:53:1,2009-01-16T08:00:00Z,26.6493,-81.8810,2.11,16.79,2 
SCCF RECON,ioos:station:SCCF:53:1,2009-01-16T09:00:00Z,26.6493,-81.8810,2.11,16.68,2 
SCCF RECON,ioos:station:SCCF:53:1,2009-01-16T10:00:00Z,26.6493,-81.8810,2.11,16.64,2 
SCCF RECON,ioos:station:SCCF:53:1,2009-01-16T11:00:00Z,26.6493,-81.8810,2.11,16.41,2 
SCCF RECON,ioos:station:SCCF:53:1,2009-01-16T12:00:00Z,26.6493,-81.8810,2.11,16.3,2 
SCCF RECON,ioos:station:SCCF:53:1,2009-01-16T13:00:00Z,26.6493,-81.8810,2.11,16.24,2 
SCCF RECON,ioos:station:SCCF:53:1,2009-01-16T14:00:00Z,26.6493,-81.8810,2.11,16.1,2 
SCCF RECON,ioos:station:SCCF:53:1,2009-01-16T15:00:00Z,26.6493,-81.8810,2.11,16.04,2 
SCCF RECON,ioos:station:SCCF:53:1,2009-01-16T16:00:00Z,26.6493,-81.8810,2.11,15.92,2 
SCCF RECON,ioos:station:SCCF:53:1,2009-01-16T17:00:00Z,26.6493,-81.8810,2.11,16.0,2 
SCCF RECON,ioos:station:SCCF:53:1,2009-01-16T18:00:00Z,26.6493,-81.8810,2.11,16.23,2 
SCCF RECON,ioos:station:SCCF:53:1,2009-01-16T19:00:00Z,26.6493,-81.8810,2.11,16.38,2 
SCCF RECON,ioos:station:SCCF:53:1,2009-01-16T20:00:00Z,26.6493,-81.8810,2.11,16.57,2 
SCCF RECON,ioos:station:SCCF:53:1,2009-01-16T21:00:00Z,26.6493,-81.8810,2.11,16.83,2 
SCCF RECON,ioos:station:SCCF:53:1,2009-01-16T22:00:00Z,26.6493,-81.8810,2.11,16.85,2 
SCCF RECON,ioos:station:SCCF:53:1,2009-01-16T23:00:00Z,26.6493,-81.8810,2.11,16.68,2 
SCCF RECON,ioos:station:SCCF:53:1,2009-01-17T00:00:00Z,26.6493,-81.8810,2.11,16.52,2 
SCCF RECON,ioos:station:SCCF:53:1,2009-01-17T01:00:00Z,26.6493,-81.8810,2.11,16.36,2 
SCCF RECON,ioos:station:SCCF:53:1,2009-01-17T02:00:00Z,26.6493,-81.8810,2.11,16.25,2 
SCCF RECON,ioos:station:SCCF:53:1,2009-01-17T03:00:00Z,26.6493,-81.8810,2.11,16.13,2 
SCCF RECON,ioos:station:SCCF:53:1,2009-01-17T04:00:00Z,26.6493,-81.8810,2.11,15.89,2 
SCCF RECON,ioos:station:SCCF:53:1,2009-01-17T05:00:00Z,26.6493,-81.8810,2.11,15.82,2 
SCCF RECON,ioos:station:SCCF:53:1,2009-01-17T06:00:00Z,26.6493,-81.8810,2.11,15.64,2 
SCCF RECON,ioos:station:SCCF:53:1,2009-01-17T07:00:00Z,26.6493,-81.8810,2.11,15.56,2 
SCCF RECON,ioos:station:SCCF:53:1,2009-01-17T08:00:00Z,26.6493,-81.8810,2.11,15.43,2 
SCCF RECON,ioos:station:SCCF:53:1,2009-01-17T09:00:00Z,26.6493,-81.8810,2.11,15.17,2 
SCCF RECON,ioos:station:SCCF:53:1,2009-01-17T10:00:00Z,26.6493,-81.8810,2.11,15.09,2 
SCCF RECON,ioos:station:SCCF:53:1,2009-01-17T11:00:00Z,26.6493,-81.8810,2.11,15.0,2 
SCCF RECON,ioos:station:SCCF:53:1,2009-01-17T12:00:00Z,26.6493,-81.8810,2.11,14.84,2 
SCCF RECON,ioos:station:SCCF:53:1,2009-01-17T13:00:00Z,26.6493,-81.8810,2.11,14.87,2 
SCCF RECON,ioos:station:SCCF:53:1,2009-01-17T14:00:00Z,26.6493,-81.8810,2.11,15.11,2 
SCCF RECON,ioos:station:SCCF:53:1,2009-01-17T15:00:00Z,26.6493,-81.8810,2.11,14.78,2 
SCCF RECON,ioos:station:SCCF:53:1,2009-01-17T16:00:00Z,26.6493,-81.8810,2.11,14.88,2 
SCCF RECON,ioos:station:SCCF:53:1,2009-01-17T17:00:00Z,26.6493,-81.8810,2.11,14.99,2 
SCCF RECON,ioos:station:SCCF:53:1,2009-01-17T18:00:00Z,26.6493,-81.8810,2.11,14.95,2 
SCCF RECON,ioos:station:SCCF:53:1,2009-01-17T19:00:00Z,26.6493,-81.8810,2.11,15.01,2 
SCCF RECON,ioos:station:SCCF:53:1,2009-01-17T20:00:00Z,26.6493,-81.8810,2.11,15.28,2 
SCCF RECON,ioos:station:SCCF:53:1,2009-01-17T21:00:00Z,26.6493,-81.8810,2.11,15.5,2 
SCCF RECON,ioos:station:SCCF:53:1,2009-01-17T22:00:00Z,26.6493,-81.8810,2.11,15.34,2 
SCCF RECON,ioos:station:SCCF:53:1,2009-01-17T23:00:00Z,26.6493,-81.8810,2.11,15.34,2 
SCCF RECON,ioos:station:SCCF:53:1,2009-01-18T00:00:00Z,26.6493,-81.8810,2.11,15.38,2 
SCCF RECON,ioos:station:SCCF:53:1,2009-01-18T01:00:00Z,26.6493,-81.8810,2.11,15.29,2 
SCCF RECON,ioos:station:SCCF:53:1,2009-01-18T02:00:00Z,26.6493,-81.8810,2.11,15.37,2 
SCCF RECON,ioos:station:SCCF:53:1,2009-01-18T03:00:00Z,26.6493,-81.8810,2.11,15.51,2 
SCCF RECON,ioos:station:SCCF:53:1,2009-01-18T04:00:00Z,26.6493,-81.8810,2.11,15.53,2 
SCCF RECON,ioos:station:SCCF:53:1,2009-01-18T05:00:00Z,26.6493,-81.8810,2.11,15.52,2 
SCCF RECON,ioos:station:SCCF:53:1,2009-01-18T06:00:00Z,26.6493,-81.8810,2.11,15.56,2 
SCCF RECON,ioos:station:SCCF:53:1,2009-01-18T07:00:00Z,26.6493,-81.8810,2.11,15.62,2 
SCCF RECON,ioos:station:SCCF:53:1,2009-01-18T08:00:00Z,26.6493,-81.8810,2.11,15.64,2 
SCCF RECON,ioos:station:SCCF:53:1,2009-01-18T09:00:00Z,26.6493,-81.8810,2.11,15.6,2 
SCCF RECON,ioos:station:SCCF:53:1,2009-01-18T10:00:00Z,26.6493,-81.8810,2.11,15.43,2 
SCCF RECON,ioos:station:SCCF:53:1,2009-01-18T11:00:00Z,26.6493,-81.8810,2.11,15.3,2 
SCCF RECON,ioos:station:SCCF:53:1,2009-01-18T12:00:00Z,26.6493,-81.8810,2.11,15.0,2 
SCCF RECON,ioos:station:SCCF:53:1,2009-01-18T13:00:00Z,26.6493,-81.8810,2.11,14.97,2 
SCCF RECON,ioos:station:SCCF:53:1,2009-01-18T14:00:00Z,26.6493,-81.8810,2.11,14.74,2 
SCCF RECON,ioos:station:SCCF:53:1,2009-01-18T15:00:00Z,26.6493,-81.8810,2.11,14.55,2 
SCCF RECON,ioos:station:SCCF:53:1,2009-01-18T16:00:00Z,26.6493,-81.8810,2.11,14.72,2 
SCCF RECON,ioos:station:SCCF:53:1,2009-01-18T17:00:00Z,26.6493,-81.8810,2.11,14.8,2 
SCCF RECON,ioos:station:SCCF:53:1,2009-01-18T18:00:00Z,26.6493,-81.8810,2.11,14.97,2 
SCCF RECON,ioos:station:SCCF:53:1,2009-01-18T19:00:00Z,26.6493,-81.8810,2.11,15.08,2 
SCCF RECON,ioos:station:SCCF:53:1,2009-01-18T20:00:00Z,26.6493,-81.8810,2.11,15.27,2 
SCCF RECON,ioos:station:SCCF:53:1,2009-01-18T21:00:00Z,26.6493,-81.8810,2.11,15.24,2 
SCCF RECON,ioos:station:SCCF:53:1,2009-01-18T22:00:00Z,26.6493,-81.8810,2.11,15.28,2 
SCCF RECON,ioos:station:SCCF:53:1,2009-01-18T23:00:00Z,26.6493,-81.8810,2.11,16.34,2 
SCCF RECON,ioos:station:SCCF:53:1,2009-01-19T00:00:00Z,26.6493,-81.8810,2.11,16.52,2 
SCCF RECON,ioos:station:SCCF:53:1,2009-01-19T01:00:00Z,26.6493,-81.8810,2.11,16.39,2 
SCCF RECON,ioos:station:SCCF:53:1,2009-01-19T02:00:00Z,26.6493,-81.8810,2.11,16.39,2 
SCCF RECON,ioos:station:SCCF:53:1,2009-01-19T03:00:00Z,26.6493,-81.8810,2.11,16.35,2 
SCCF RECON,ioos:station:SCCF:53:1,2009-01-19T04:00:00Z,26.6493,-81.8810,2.11,16.46,2 
SCCF RECON,ioos:station:SCCF:53:1,2009-01-19T05:00:00Z,26.6493,-81.8810,2.11,16.43,2 
SCCF RECON,ioos:station:SCCF:53:1,2009-01-19T06:00:00Z,26.6493,-81.8810,2.11,16.11,2 
SCCF RECON,ioos:station:SCCF:53:1,2009-01-19T07:00:00Z,26.6493,-81.8810,2.11,16.15,2 
SCCF RECON,ioos:station:SCCF:53:1,2009-01-19T08:00:00Z,26.6493,-81.8810,2.11,16.22,2 
SCCF RECON,ioos:station:SCCF:53:1,2009-01-19T09:00:00Z,26.6493,-81.8810,2.11,16.1,2 
SCCF RECON,ioos:station:SCCF:53:1,2009-01-19T10:00:00Z,26.6493,-81.8810,2.11,16.02,2 
SCCF RECON,ioos:station:SCCF:53:1,2009-01-19T11:00:00Z,26.6493,-81.8810,2.11,15.83,2 
SCCF RECON,ioos:station:SCCF:53:1,2009-01-19T12:00:00Z,26.6493,-81.8810,2.11,15.82,2 
SCCF RECON,ioos:station:SCCF:53:1,2009-01-19T13:00:00Z,26.6493,-81.8810,2.11,15.9,2 
SCCF RECON,ioos:station:SCCF:53:1,2009-01-19T14:00:00Z,26.6493,-81.8810,2.11,15.91,2 
SCCF RECON,ioos:station:SCCF:53:1,2009-01-19T15:00:00Z,26.6493,-81.8810,2.11,16.01,2 
SCCF RECON,ioos:station:SCCF:53:1,2009-01-19T16:00:00Z,26.6493,-81.8810,2.11,16.23,2 
SCCF RECON,ioos:station:SCCF:53:1,2009-01-19T17:00:00Z,26.6493,-81.8810,2.11,16.34,2 
SCCF RECON,ioos:station:SCCF:53:1,2009-01-19T18:00:00Z,26.6493,-81.8810,2.11,16.71,2 
SCCF RECON,ioos:station:SCCF:53:1,2009-01-19T19:00:00Z,26.6493,-81.8810,2.11,17.07,2 
SCCF RECON,ioos:station:SCCF:53:1,2009-01-19T20:00:00Z,26.6493,-81.8810,2.11,17.22,2 
SCCF RECON,ioos:station:SCCF:53:1,2009-01-19T21:00:00Z,26.6493,-81.8810,2.11,17.25,2 
SCCF RECON,ioos:station:SCCF:53:1,2009-01-19T22:00:00Z,26.6493,-81.8810,2.11,17.28,2 
SCCF RECON,ioos:station:SCCF:53:1,2009-01-19T23:00:00Z,26.6493,-81.8810,2.11,17.47,2 
SCCF RECON,ioos:station:SCCF:53:1,2009-01-20T00:00:00Z,26.6493,-81.8810,2.11,17.16,2 
SCCF RECON,ioos:station:SCCF:53:1,2009-01-20T01:00:00Z,26.6493,-81.8810,2.11,16.98,2 
SCCF RECON,ioos:station:SCCF:53:1,2009-01-20T02:00:00Z,26.6493,-81.8810,2.11,17.03,2 
SCCF RECON,ioos:station:SCCF:53:1,2009-01-20T03:00:00Z,26.6493,-81.8810,2.11,17.11,2 
SCCF RECON,ioos:station:SCCF:53:1,2009-01-20T04:00:00Z,26.6493,-81.8810,2.11,17.01,2 
SCCF RECON,ioos:station:SCCF:53:1,2009-01-20T05:00:00Z,26.6493,-81.8810,2.11,17.1,2 
SCCF RECON,ioos:station:SCCF:53:1,2009-01-20T06:00:00Z,26.6493,-81.8810,2.11,17.2,2 
SCCF RECON,ioos:station:SCCF:53:1,2009-01-20T07:00:00Z,26.6493,-81.8810,2.11,17.11,2 
SCCF RECON,ioos:station:SCCF:53:1,2009-01-20T08:00:00Z,26.6493,-81.8810,2.11,17.15,2 
SCCF RECON,ioos:station:SCCF:53:1,2009-01-20T09:00:00Z,26.6493,-81.8810,2.11,17.06,2 
SCCF RECON,ioos:station:SCCF:53:1,2009-01-20T10:00:00Z,26.6493,-81.8810,2.11,16.98,2 
SCCF RECON,ioos:station:SCCF:53:1,2009-01-20T11:00:00Z,26.6493,-81.8810,2.11,16.92,2 
SCCF RECON,ioos:station:SCCF:53:1,2009-01-20T12:00:00Z,26.6493,-81.8810,2.11,16.77,2 
SCCF RECON,ioos:station:SCCF:53:1,2009-01-20T13:00:00Z,26.6493,-81.8810,2.11,16.77,2 
SCCF RECON,ioos:station:SCCF:53:1,2009-01-20T14:00:00Z,26.6493,-81.8810,2.11,16.93,2 
SCCF RECON,ioos:station:SCCF:53:1,2009-01-20T15:00:00Z,26.6493,-81.8810,2.11,16.83,2 
SCCF RECON,ioos:station:SCCF:53:1,2009-01-20T16:00:00Z,26.6493,-81.8810,2.11,16.86,2 
SCCF RECON,ioos:station:SCCF:53:1,2009-01-20T17:00:00Z,26.6493,-81.8810,2.11,16.95,2 
SCCF RECON,ioos:station:SCCF:53:1,2009-01-20T18:00:00Z,26.6493,-81.8810,2.11,17.05,2 
SCCF RECON,ioos:station:SCCF:53:1,2009-01-20T19:00:00Z,26.6493,-81.8810,2.11,17.07,2 
SCCF RECON,ioos:station:SCCF:53:1,2009-01-20T20:00:00Z,26.6493,-81.8810,2.11,17.07,2 
SCCF RECON,ioos:station:SCCF:53:1,2009-01-20T21:00:00Z,26.6493,-81.8810,2.11,17.02,2 
SCCF RECON,ioos:station:SCCF:53:1,2009-01-20T22:00:00Z,26.6493,-81.8810,2.11,17.1,2 
SCCF RECON,ioos:station:SCCF:53:1,2009-01-20T23:00:00Z,26.6493,-81.8810,2.11,17.07,2 
SCCF RECON,ioos:station:SCCF:53:1,2009-01-21T00:00:00Z,26.6493,-81.8810,2.11,16.87,2 
SCCF RECON,ioos:station:SCCF:53:1,2009-01-21T01:00:00Z,26.6493,-81.8810,2.11,16.91,2 
SCCF RECON,ioos:station:SCCF:53:1,2009-01-21T02:00:00Z,26.6493,-81.8810,2.11,16.71,2 
SCCF RECON,ioos:station:SCCF:53:1,2009-01-21T03:00:00Z,26.6493,-81.8810,2.11,16.66,2 
SCCF RECON,ioos:station:SCCF:53:1,2009-01-21T04:00:00Z,26.6493,-81.8810,2.11,16.53,2 
SCCF RECON,ioos:station:SCCF:53:1,2009-01-21T05:00:00Z,26.6493,-81.8810,2.11,16.34,2 
SCCF RECON,ioos:station:SCCF:53:1,2009-01-21T06:00:00Z,26.6493,-81.8810,2.11,16.48,2 
SCCF RECON,ioos:station:SCCF:53:1,2009-01-21T07:00:00Z,26.6493,-81.8810,2.11,16.62,2 
SCCF RECON,ioos:station:SCCF:53:1,2009-01-21T08:00:00Z,26.6493,-81.8810,2.11,16.52,2 
SCCF RECON,ioos:station:SCCF:53:1,2009-01-21T09:00:00Z,26.6493,-81.8810,2.11,16.07,2 